Flag for Greenland Weather past 2 weeks in Danmarkshavn, Greenland

Now
44 °F

Overcast.


Feels Like: 39 °F
Forecast: 35 / 39 °F
Wind: 10 mph from West

Location: Danmarkshavn

Current Time: Aug 1, 2014 at 4:57:01 PM

Latest Report: Aug 1, 2014 at 4:00 PM


Visibility: 31 mi

Pressure: 29.97 "Hg

Humidity: 76%

Dew point: 37 °F

Location of DanmarkshavnLocation

Historic Weather in Danmarkshavn — Graph

°F

Danmarkshavn temperature yesterday

Maximum temperature yesterday: 48 °F (at 10:00 AM)
Minimum temperature yesterday: 40 °F (at 8:00 PM)
Average temperature yesterday: 43 °F

Past Weeks' High & Low Weather Summary

 TemperatureHumidityPressure
High58 °F (Jul 21, 3:00 PM)100% (Jul 18, 10:00 PM)30.13 "Hg (Jul 18, 10:00 PM)
Low34 °F (Jul 29, 7:00 AM)41% (Jul 24, 1:00 PM)29.54 "Hg (Jul 23, 9:00 PM)
Average44 °F73%29.89 "Hg
* Reported Jul 17 3:00 PM — Aug 1 3:00 PM, Danmarkshavn, Weather by CustomWeather, © 2014

Note: Actual official high and low records may vary slightly from our data, if they occured in-between our weather recording intervals... More about our weather records

Advertising

Danmarkshavn weather history for previous 24 hours

 ConditionsComfort  
Time TempWeatherWind HumidityBarometerVisibility
3:00 PM
Aug 1
43 °FOvercast.10 mph76%29.98 "Hg31 mi
2:00 PM45 °FOvercast.10 mph77%29.99 "Hg22 mi
1:00 PM43 °FOvercast.No wind80%30.00 "Hg31 mi
12:00 PM42 °FDrizzle. Overcast.3 mph85%30.00 "Hg25 mi
11:00 AM43 °FLight rain. Overcast.3 mph80%30.01 "Hg7 mi
10:00 AM43 °FDrizzle. Overcast.12 mph78%30.00 "Hg12 mi
9:00 AM44 °FOvercast.15 mph72%29.98 "Hg31 mi
8:00 AM46 °FOvercast.9 mph72%29.96 "Hg31 mi
7:00 AM45 °FOvercast.8 mph68%29.95 "Hg31 mi
6:00 AM42 °FOvercast.10 mph74%29.93 "Hg31 mi
5:00 AM42 °FOvercast.10 mph69%29.93 "Hg31 mi
4:00 AM41 °FOvercast.10 mph72%29.92 "Hg31 mi
3:00 AM44 °FOvercast.6 mph67%29.92 "Hg31 mi
2:00 AM43 °FOvercast.7 mph71%29.92 "Hg31 mi
1:00 AM43 °FOvercast.No wind68%29.92 "Hg31 mi
12:00 AM42 °FOvercast.No wind76%29.92 "Hg31 mi
11:00 PM
Jul 31
43 °FOvercast.No wind72%29.91 "HgN/A
10:00 PM42 °FOvercast.No wind77%29.90 "Hg31 mi
9:00 PM41 °FOvercast.No wind78%29.90 "Hg31 mi
8:00 PM40 °FOvercast.3 mph81%29.89 "Hg31 mi
7:00 PM45 °FOvercast.6 mph66%29.89 "Hg31 mi
6:00 PM44 °FOvercast.3 mph69%29.88 "Hg31 mi
5:00 PM45 °FOvercast.3 mph69%29.89 "Hg31 mi
4:00 PM42 °FOvercast.2 mph74%29.89 "Hg31 mi
Weather by CustomWeather, © 2014

See weather overviewHow to use our weather pages